P/2016 R4 ( Gibbs )

Japanese version
Home page
Updated on December 31, 2016

---------------------------------------------------------------------

* Profile

Discovery Date September 10, 2016
Magnitude 18.9 mag
Discoverer A. R. Gibbs (Mount Lemmon)

* Pictures

* Orbital Elements

Epoch 2016 July 31.0 TT = JDT 2457600.5
T 2016 July 20.52019 TT                                 MPCW
q   2.8006328            (2000.0)            P               Q
n   0.07998920     Peri.  174.06417     +0.95362482     +0.29858136
a   5.3347630      Node   168.34718     -0.28333291     +0.93313685
e   0.4750221      Incl.   10.86260     -0.10159809     +0.20026180
P  12.32
From 175 observations 2016 July 18-Oct. 30, mean residual 0".5.

* Magnitudes Graph

        m1 = 12.5 + 5 log d + 10.0 log r

---------------------------------------------------------------------

The orbital elements are published on M.P.E.C. 2016-V116.
The magnitudes graphs are made with Comet for Windows.

---------------------------------------------------------------------

Copyright(C) Seiichi Yoshida (comet@aerith.net). All rights reserved.